Regional Weather Roundup
Issued by NWS Northern Indiana

Home | Current Version | Previous Version | Text Only | Print | Product List | Glossary On
Versions: 1 2 3 4 5 6 7 8 9 10 11 12 13 14 15 16 17 18 19 20 21 22 23 24 25 26 27 28 29 30 31 32 33 34 35 36 37 38 39 40 41 42 43 44 45 46 47 48 49 50
000
ASUS43 KIWX 180410
RWRIWX

KIWX WEATHER ROUNDUP
NATIONAL WEATHER SERVICE NORTHERN INDIANA
1100 PM EST SUN FEB 17 2019

NOTE: "FAIR" INDICATES FEW OR NO CLOUDS BELOW 12,000 FEET WITH NO
SIGNIFICANT WEATHER AND/OR OBSTRUCTIONS TO VISIBILITY.

* THESE STATIONS ARE NOT UNDER NWS QUALITY CONTROL. THEY ALSO MAY NOT
  REPORT WEATHER SUCH AS PRECIPITATION OR FOG.

INZ001>027-180500-
NORTHERN INDIANA

CITY           SKY/WX    TMP DP  RH WIND       PRES   REMARKS
GARY*          LGT SNOW  28  27  93 CALM      29.91R FOG
VALPARAISO     CLOUDY    28  22  78 NE5       29.90R WCI  23
MICHIGAN CITY* LGT SNOW  27  23  86 CALM      29.91R
LAPORTE*       LGT SNOW  25  23  92 NE3       29.90R
KNOX*          CLOUDY    27  25  93 NE3       29.89R
SOUTH BEND     LGT SNOW  24  21  88 NE7       29.89R FOG     WCI  16
GOSHEN         LGT SNOW  24  22  91 N6        29.88R FOG     WCI  17
MONTICELLO*    CLOUDY    28  27  96 CALM      29.88R FOG
ROCHESTER*     CLOUDY    28  27  93 CALM      29.87S FOG
WARSAW*        CLOUDY    25  23  93 NE6       29.87S WCI  18
KENDALLVILLE*  CLOUDY    23  20  88 N6        29.86S WCI  16
AUBURN*        CLOUDY    25  23  93 N3        29.87R
FORT WAYNE     FLURRIES  27  24  89 NE7       29.87R WCI  19
HUNTINGTON*    CLOUDY    26  24  93 NE3       29.87R
PERU/GRISSOM   CLOUDY    27  27 100 CALM      29.87R

$$
INZ028>050-180500-
CENTRAL INDIANA

CITY           SKY/WX    TMP DP  RH WIND       PRES   REMARKS
LAFAYETTE      CLOUDY    28  28 100 NW3       29.89R
KOKOMO*        CLOUDY    27  26  96 CALM      29.88R FOG
MUNCIE*        CLOUDY    29  26  89 N6        29.85R FOG     WCI  23
INDIANAPOLIS   CLOUDY    31  28  89 W10       29.89R WCI  22

$$
MIZ043>046-050>051-056>058-064>065-071>073-077>080-180500-
SOUTHWEST LOWER MICHIGAN

CITY           SKY/WX    TMP DP  RH WIND       PRES   REMARKS
BATTLE CREEK   LGT SNOW  22  19  89 NE7       29.89R FOG     WCI  13
BENTON HARBOR  CLOUDY    24  19  81 VRB5      29.91S HAZE    WCI  18
COLDWATER*     CLOUDY    24  23  96 N3        29.88R
HILLSDALE*     LGT SNOW  23  19  84 N5        29.84R WCI  16
HOLLAND        LGT SNOW  22  18  85 NE7       29.94R FOG     WCI  13
GRAND RAPIDS   LGT SNOW  22  18  85 N6        29.93R FOG     WCI  14
KALAMAZOO      LGT SNOW  23  19  85 NE6       29.90R FOG     WCI  16
STURGIS*       LGT SNOW  24  22  92 NE5       29.87S WCI  19
THREE RIVERS*  LGT SNOW  24  21  90 CALM      29.89S

$$
OHZ001>008-015>018-024>025-180500-
NORTHWEST OHIO

CITY           SKY/WX    TMP DP  RH WIND       PRES   REMARKS
WAUSEON*       MIX PCPN  23  25 100 N8        29.85R WCI  14
DEFIANCE       CLOUDY    24  20  84 N7        29.87R WCI  16
FINDLAY        CLOUDY    27  25  92 N7        29.81R WCI  19
OTTAWA*        CLOUDY    25  23  93 N10       29.86R WCI  15
TOLEDO EXPRESS CLOUDY    24  20  84 N10       29.85R WCI  14
LIMA           CLOUDY    26  23  88 N7        29.82R WCI  18

$$
AND FOR LAKE MICHIGAN COASTAL AND OPEN LAKE BUOY OBSERVATIONS

STATION/POSITION TEMP    WIND        PRES    VSBY  WAVE
                 AIR SEA DIR/SP/G                  HT/PER
                 (F)     (DEG/KT/KT) (MB)    (MI)  (FT/S)
CALUMET HARBOR    27      60/  9/ 11 1012.3R
MICHIGAN CITY     26      40/ 11/ 14   N/A
BURNS HARBOR      26      80/  6/  7 1013.2R
SAINT JOSEPH      23      50/  5/  9 1012.9S

$$
&&




USA.gov is the U.S. government's official web portal to all federal, state and local government web resources and services.